Regional Weather Roundup
Issued by NWS

Home | Current Version | Previous Version | Graphics & Text | Print | Product List | Glossary On
Versions: 1 2 3 4 5 6 7 8 9 10 11 12 13 14 15 16 17 18 19 20 21 22 23 24 25 26 27 28 29 30 31 32 33 34 35 36 37 38 39 40 41 42 43 44 45 46 47 48 49 50
000
ASUS43 KDMX 220307
RWRIA

WEATHER ROUNDUP FOR IOWA
NATIONAL WEATHER SERVICE DES MOINES IA
1000 PM CDT SUN SEP 21 2014

NOTE: "FAIR" INDICATES FEW OR NO CLOUDS BELOW 12,000 FEET WITH NO
SIGNIFICANT WEATHER AND/OR OBSTRUCTIONS TO VISIBILITY.

* - THESE STATIONS ARE NOT NWS STATIONS...THUS NOT UNDER NWS
QUALITY CONTROL.  THEY ALSO DO NOT REPORT WEATHER SUCH
AS PRECIPITATION OR FOG.

IAZ001>003-012>014-020>022-031>034-043>046-220400-
   NORTHWEST IOWA

CITY           SKY/WX    TMP DP  RH WIND       PRES   REMARKS
CARROLL *      CLEAR     50  48  93 NW5       30.25R
CHEROKEE *     CLEAR     52  50  93 CALM      30.26R
DENISON *      CLEAR     52  50  93 E5        30.24R
LE MARS *        N/A     52  50  93 N3        30.27R
ORANGE CITY *  CLEAR     61  46  59 CALM      30.27R
SHELDON *      CLEAR     48  46  93 CALM      30.26R
SIOUX CITY     CLEAR     53  50  89 CALM      30.26R
SPENCER        CLEAR     49  46  90 CALM      30.26R
STORM LAKE *   CLEAR     54  50  87 N6        30.26R
$$

IAZ055>058-069>071-079>083-090>094-220400-
   SOUTHWEST IOWA

CITY           SKY/WX    TMP DP  RH WIND       PRES   REMARKS
ATLANTIC *     CLEAR     52  50  93 CALM      30.25R
AUDUBON *      CLEAR     50  45  81 CALM      30.27R
CLARINDA *     CLEAR     52  50  93 CALM      30.26R
COUNCIL BLFS * CLEAR     57  52  82 N6        30.25R
CRESTON *      CLEAR     57  48  72 N6        30.25R
HARLAN  *      CLEAR     52  50  93 CALM      30.29R
LAMONI         CLEAR     55  49  80 NW5       30.23R
RED OAK *      CLEAR     54  50  87 CALM      30.26R
SHENANDOAH *   CLEAR     50  48  93 CALM      30.26R
$$

IAZ047>049-059>061-072>074-084-220400-
   CENTRAL IOWA

CITY           SKY/WX    TMP DP  RH WIND       PRES   REMARKS
AMES           CLEAR     55  49  80 N6        30.23R
ANKENY *       CLEAR     54  50  87 NW6       30.23R
CHARITON *     CLEAR     55  50  82 NW5       30.22R
DES MOINES     CLEAR     60  49  66 N6        30.23R
GRINNELL*      CLEAR     52  48  87 W3        30.22R
KNOXVILLE *    CLEAR     54  48  82 NW5       30.21R
MARSHALLTOWN   CLEAR     50  48  93 NW6       30.21R
PELLA *        CLEAR     52  48  87 NW5       30.23R
PERRY *          N/A     57  48  72 N6        30.24R
$$

IAZ004>006-015-016-023>025-035-036-220400-
   NORTH CENTRAL IOWA

CITY           SKY/WX    TMP DP  RH WIND       PRES   REMARKS
ALGONA *       CLEAR     55  50  82 N5        30.25R
CLARION *        N/A     52  48  87 N5        30.24R
ESTHERVILLE    CLEAR     48  45  89 NW5       30.25R
FORT DODGE *   CLEAR     52  45  76 N3        30.25S
MASON CITY     CLEAR     50  47  89 NW7       30.25R
FOREST CITY *  CLEAR     48  48 100 CALM      30.24R
IOWA FALLS *     N/A     52  48  87 N6        30.24R
$$

IAZ007>011-017>019-026>030-037>042-050>054-066-220400-
   NORTHEAST IOWA

CITY           SKY/WX    TMP DP  RH WIND       PRES   REMARKS
CEDAR RAPIDS   CLEAR     51  48  89 NW5       30.18R
CHARLES CITY * CLEAR     50  48  93 NW6       30.23R
CLINTON *      CLEAR     52  46  82 NW5       30.19R
DECORAH *      CLEAR     50  46  87 NW5       30.20R
DUBUQUE        CLEAR     50  46  86 NW7       30.18R
MONTICELLO *   CLEAR     48  46  93 N3        30.18R
OELWEIN *      CLEAR     48  46  93 NW7       30.21R
WATERLOO       CLEAR     48  45  89 NW6       30.21R
$$

IAZ064-065-067-068-078-220400-
   EAST CENTRAL IOWA

CITY           SKY/WX    TMP DP  RH WIND       PRES   REMARKS
DAVENPORT      CLEAR     51  45  79 N6        30.17R
IOWA CITY        N/A     53  48  83 NW6       30.20R
MT. PLEASANT * CLEAR     57  48  72 NW5       30.19R
MUSCATINE *    CLEAR     54  48  82 NW7       30.18R
QUAD CITIES    CLEAR     58  47  66 N5        30.16R
$$

IAZ062-063-075>077-085>089-095>099-220400-
   SOUTHEAST IOWA

CITY           SKY/WX    TMP DP  RH WIND       PRES   REMARKS
BURLINGTON     CLEAR     56  50  80 NW6       30.18R
FAIRFIELD *    CLEAR     52  48  87 NW7       30.20R
FORT MADISON * CLEAR     55  52  88 NW3       30.19R
KEOKUK *       PTCLDY    57  52  82 NW6       30.18R
OSKALOOSA *      N/A     52  48  87 NW8       30.21R
CENTERVILLE *  CLEAR     54  50  87 NW3       30.23R
OTTUMWA        CLEAR     51  47  86 NW6       30.20R
WASHINGTON *   CLEAR     54  50  87 W5        30.19R
$$

ABBREVIATIONS USED IN REMARKS
   TC - TEMPERATURES IN CELSIUS
  WCI - WIND CHILL INDEX
   HX - HEAT INDEX
  VSB - VISIBILITY
$$




USA.gov is the U.S. government's official web portal to all federal, state and local government web resources and services.